Погода в Тикси

Погода в Тикси : погода сейчас, прогноз погоды и архив. Всё, что Вы хотите узнать о погоде в Тикси!

Хотите узнать прогноз погоды в Тикси? Тогда Вам сюда: Погода в Тикси

Поиск расширенной информации на нашем сайте:

Другие новости

Новости СМИ2

Главная страница сайта

Новости сайта

03.07.2017

Напоминаем, что на нашем специализированном сайте Метеоцентр.Азия вы можете получить высокодетализированные автоматические прогнозы погоды по пунктам России, СНГ и мира в авиационном формате (включающие направление и скорость ветра, видимость, явления погоды, количество и форму облачности, нижнюю и верхнюю границу облачности).

Рекомендуем: Запчасти КамАЗ на экспорт: KAMAZ spare parts and details

Погода в Тикси - сегодня

Время (UTC), дата Ветер
(°,м/с) 
Видим.   Явления Облачность Т
(°С)
Тd
(°С)
f(%) Тe
(°С)
Pmin
(гПа)
dP
(гПа)
Po
(мм)
O2
(г/м3)
Тmin Tmax R s Состояние
почвы
03 15.02.18 тихо ()   4000 м  слаб. снег  10/0 средняя 
[Ac und]
-27.9 -29.1 89 -28  1017.7  -0.2  763  344           
06 15.02.18 180 (Ю) 4000 м  слаб. снег  10/0 средняя 
[Ac und]
-27.3 -28.5 89 -31  1018  0.3  763  343           
09 15.02.18 200 (Ю) 4000 м  слаб. снег  10/0 средняя 
[Ac und]
-26.9 -28.1 90 -30  1018.5  0.5  763  343           
15 15.02.18 180 (Ю) 4000 м  слаб. снег  10/10 1000 м 
[Sc]
-23.6 -24.6 91 -28  1017.7  -0.5  763  338           
18 15.02.18 230 (ЮЗ) 4000 м  слаб. снег  10/10 1000 м 
[Sc]
-24 -24.9 92 -27  1017.7  763  339           
21 15.02.18 290 (З) 4000 м  слаб. снег  10/10 1000 м 
[Sc]
-22.6 -23.6 92 -30  1017.2  -0.5  762  337           
12 16.02.18 210 (ЮЗ) 4000 м  слаб. снег  10/5 600 м средняя 
[Sc diur, vesp|Ac und]
-21.3 -22.3 92 -29  1021.1  0.7  759  333  -20.7         
15 17.02.18 290 (З) 4000 м  слаб. снег  10/10 600 м 
[Sc]
-21.8 -23.4 87 -29  1020.2  1.2  764  336           
18 17.02.18 300 (СЗ) 4000 м  слаб. снег  10/10 600 м 
[Sc]
-21.8 -23.5 86 -29  1021  0.8  765  337           
21 17.02.18 240 (ЮЗ) 4000 м  слаб. снег  10/10 600 м 
[Sc]
-22.3 -23.4 91 -25  1021.9  0.9  766  338           
03 18.02.18 090 (В) 10 км  слаб. снег  10/10 600 м 
[Sc]
-21.6 -22.8 90 -22  1023  0.5  767  337           
06 18.02.18 020 (С) 10 км  слаб. снег  10/10 600 м 
[Sc]
-22.5 -23.1 95 -23  1023.1  0.1  767  338           
09 18.02.18 350 (С) 10 км  слаб. снег  10/10 600 м 
[Sc]
-23.4 -23.9 96 -26  1023.5  0.3  767  340           
15 18.02.18 тихо ()   10 км  слаб. снег  10/10 600 м 
[Sc]
-26.4 -26.9 95 -26  1022.5  -0.8  766  344           
18 18.02.18 250 (З) 10 км  слаб. снег  10/8 600 м средняя 
[Sc|Ac und]
-26.5 -26.9 96 -27  1021.5  -1  765  343           
21 18.02.18 180 (Ю) 20000 м  {снег}  10/6 600 м средняя 
[Sc|Ac und]
-27.5 -28.2 94 -28  1020.3  -1.2  764  344           
03 19.02.18 260 (З) 10 км  слаб. снег  10/0 средняя, верхняя 
[Ac trans|Cs]
-25.3 -26.2 92 -33  1017.6  -1.2  762  340           
00 20.02.18 260 (З) 12-15{17}  2000 м  слаб. снег  10/10 1000 м 
[Sc]
-22.5 -23.7 90 -34  1007.9  -2.1  755  333  -23.9    0.2  неравномерный
сухой снег
100% 
12 20.02.18 260 (З) 20-25{26}  0050 м    ?/?  
-22.4 -23 95 -36  998.3  -1.7  748  330    -22.1     
00 21.02.18 230 (ЮЗ) 10-14{14}  0200 м  слаб. снег  10/10 1000 м 
[Sc]
-24 -24.6 95 -35  1002.3  751  334  -24.4    неравномерный
сухой снег
100% 
12 21.02.18 200 (Ю) 4{10}  20000 м  {снег}  10/0 средняя, верхняя 
[Ac trans|Cs]
-26 -27 91 -32  1009.6  756  339    -24  0.9     
15 21.02.18 210 (ЮЗ) 20000 м    10/0 средняя, верхняя 
[Ac trans|Cs]
-25.7 -26.2 96 -32  1013.1  3.5  759  339           
18 21.02.18 190 (Ю) 20000 м    10/0 средняя, верхняя 
[Ac trans|Cs]
-27.2 -27.7 96 -35  1016  2.9  761  343           
21 21.02.18 190 (Ю) 20000 м    10/0 верхняя 
[Cs]
-26.9 -27.8 92 -32  1018.7  2.7  763  343           
00 22.02.18 010 (С) 20000 м    10/0 верхняя 
[Cs]
-29.6 -30.7 90 -33  1020.5  1.8  765  347  -30.1      16  неравномерный
сухой снег
100% 
Время (UTC), дата Ветер
(°,м/с) 
Видим.   Явления Облачность Т
(°С)
Тd
(°С)
f(%) Тe
(°С)
Pmin
(гПа)
dP
(гПа)
Po
(мм)
O2
(г/м3)
Тmin Tmax R s Состояние
почвы

Для получения пояснительной информации подведите курсор к названию столбца.

ПОГОДА в Тикси - архив

Всё, что Вы хотите узнать о погоде в Тикси - удобно и подробно!

Выберите нужную дату (начиная с 1 января 2015* года) и нажмите кнопку "Найти".
Будут отображены архивные сводки погоды по пункту Тикси, начиная с указанной даты.


Отображать данные в формате CSV (для использования в таблицах Excel)


Внимание! Наш архив погоды предназначен исключительно для личного некоммерческого использования в познавательных целях. Если Вам необходимы официальные справки о состоянии погоды (для производственных, юридических, коммерческих и т.п. целей), обращайтесь в органы Росгидромета.

*Примечание: данная дата относится к архиву по метеостанциям СССР (Россия, СНГ, Балтия).
Архив по метеостанциям Зарубежной Европы и Азии (кроме Китая) хранится 10 дней, по другим регионам земного шара (Китай, Африка, Америка, Австралия, Океания) - 1 день.

Тикси - район местоположения метеостанции


Название, широта, долгота, высота метеостанции:
Тикси (посёлок) 71.6°ш. 128.9°д. 7 м над ур. моря [Российская Федерация]

Дополнительная информация

В oтличие oт бoльшинства пoгoдных сайтoв мы публикуем пoдрoбную метеoинфoрмацию в детальнoм прoфессиoнальнoм фoрмате.

Характеристики температуры и влажнoсти вoздуха измеряются на высoте 2 м в тени вдали oт зданий и деревьев.
Скoрoсть ветра измеряется на высoте 10 м (на урoвне рoста челoвека скoрoсть ветра ниже в 1.5-2 раза). Если метеoстанция нахoдится в гoрoде или в лесу, тo скoрoсть ветра занижена на 2-4 м/с пo сравнению с oткрытым местoм. Скoрoсть ветра над акватoриями крупных рек и oзёр, а также на вершинах хoлмoв на 2-5 м/с выше, чем в oбычных услoвиях.
Атмoсфернoе давление в разных тoчках местнoсти мoжет значительнo oтличаться oт давления на метеoстанции, в зависимoсти oт услoвий рельефа (при пoдъёме на 10 м давление пoнижается примернo на 1 мм рт.ст.).